Location: *
(33.3200°N, 8.3381°W)
Time: 16:18:38
(UTC+00:00)

Cosmos 1939 Rocket - Pass Details

Date: 09 April 2020
Orbit: 533 x 584 km, 97.4° (Epoch: 26 May)

Event Time Altitude Azimuth Distance (km) Brightness Sun altitude
Rises 19:25:28 0° 175° (S) 2,704 6.2 -6.1°
Reaches altitude 10° 19:27:36 10° 178° (S) 1,808 5.3 -6.5°
Maximum altitude 19:31:28 61° 259° (W) 616 3.4 -7.3°
Drops below altitude 10° 19:35:18 10° 341° (NNW) 1,798 5.9 -8.0°
Sets 19:37:26 0° 345° (NNW) 2,688 6.8 -8.5°
